Flag for Austria Weather past 2 weeks in Hartberg, Styria, Austria

Now
81 °F

Passing clouds.


Feels Like: 82 °F
Forecast: 61 / 87 °F
Wind: 7 mph from South

Location: Graz-Thalerhof-Flughafen

Current Time: Jul 4, 2015 at 7:24:53 PM

Latest Report: Jul 4, 2015 at 6:50 PM


Visibility: N/A

Pressure: 30.18 "Hg

Humidity: 54%

Dew point: 63 °F

Location of HartbergLocation

Historic Weather in Hartberg — Graph

°F

Hartberg temperature yesterday

Maximum temperature yesterday: 84 °F (at 3:50 PM)
Minimum temperature yesterday: 64 °F (at 4:20 AM)
Average temperature yesterday: 75 °F

Past Weeks' High & Low Weather Summary

 TemperatureHumidityPressure
High84 °F (Jul 2, 3:20 PM)100% (Jun 20, 2:20 AM)30.33 "Hg (Jun 20, 2:20 AM)
Low46 °F (Jun 21, 5:20 AM)34% (Jun 21, 12:50 PM)29.80 "Hg (Jun 23, 2:20 AM)
Average65 °F71%30.11 "Hg
* Reported Jun 19 5:20 PM — Jul 4 5:50 PM, Hartberg, Weather by CustomWeather, © 2015

Note: Actual official high and low records may vary slightly from our data, if they occured in-between our weather recording intervals... More about our weather records

Advertising

Hartberg weather history for previous 24 hours

 ConditionsComfort  
Time TempWeatherWind HumidityBarometerVisibility
5:50 PM
Sat, Jul 4
82 °FPassing clouds.7 mph48%30.18 "HgN/A
5:20 PM82 °FPassing clouds.8 mph48%30.18 "HgN/A
4:50 PM82 °FPassing clouds.9 mph45%30.18 "HgN/A
4:20 PM82 °FPassing clouds.10 mph45%30.18 "HgN/A
3:50 PM82 °FPassing clouds.9 mph45%30.21 "HgN/A
3:20 PM82 °FPassing clouds.9 mph48%30.21 "HgN/A
2:50 PM82 °FPassing clouds.9 mph48%30.21 "HgN/A
2:20 PM82 °FScattered clouds.7 mph48%30.21 "HgN/A
1:50 PM82 °FScattered clouds.7 mph48%30.24 "HgN/A
1:20 PM81 °FScattered clouds.7 mph51%30.24 "HgN/A
12:50 PM81 °FPartly sunny.7 mph51%30.24 "HgN/A
12:20 PM81 °FPartly sunny.7 mph51%30.24 "HgN/A
11:50 AM81 °FPassing clouds.7 mph51%30.27 "HgN/A
11:20 AM79 °FPassing clouds.6 mph58%30.27 "HgN/A
10:50 AM79 °FPassing clouds.3 mph61%30.27 "HgN/A
10:20 AM77 °FPassing clouds.2 mph57%30.27 "HgN/A
9:50 AM75 °FScattered clouds.1 mph61%30.27 "HgN/A
9:20 AM73 °FPartly sunny.2 mph65%30.27 "HgN/A
8:50 AM75 °FPartly sunny.2 mph65%30.27 "HgN/A
8:20 AM72 °FPartly sunny.2 mph73%30.27 "HgN/A
7:50 AM68 °FPartly sunny.1 mph83%30.30 "HgN/A
7:20 AM68 °FScattered clouds.1 mph83%30.30 "HgN/A
6:50 AM66 °FScattered clouds.1 mph88%30.27 "HgN/A
6:20 AM64 °FPassing clouds.1 mph88%30.27 "HgN/A
5:50 AM64 °FPassing clouds.1 mph88%30.27 "HgN/A
4:50 AM64 °FPassing clouds.1 mph88%30.27 "HgN/A
4:20 AM64 °FPassing clouds.1 mph94%30.30 "HgN/A
3:50 AM66 °FPassing clouds.2 mph88%30.30 "HgN/A
3:20 AM66 °FPassing clouds.2 mph88%30.30 "HgN/A
2:50 AM68 °FPassing clouds.2 mph83%30.30 "HgN/A
2:20 AM68 °FPassing clouds.1 mph83%30.30 "HgN/A
1:50 AM70 °FOvercast.3 mph78%30.33 "HgN/A
1:20 AM68 °FPassing clouds.5 mph83%30.33 "HgN/A
12:50 AM68 °FPassing clouds.3 mph78%30.33 "HgN/A
12:20 AM68 °FPassing clouds.2 mph78%30.33 "HgN/A
11:50 PM
Fri, Jul 3
68 °FMild.2 mph78%30.33 "HgN/A
11:20 PM70 °FClear.2 mph73%30.33 "Hg10 mi
10:50 PM70 °FClear.1 mph78%30.33 "Hg10 mi
10:20 PM72 °FClear.1 mph69%30.33 "Hg10 mi
9:50 PM73 °FPassing clouds.1 mph69%30.33 "HgN/A
9:20 PM75 °FPassing clouds.3 mph65%30.30 "HgN/A
8:50 PM77 °FPartly sunny.3 mph61%30.30 "HgN/A
8:20 PM77 °FScattered clouds.6 mph61%30.30 "HgN/A
7:50 PM79 °FPassing clouds.7 mph58%30.30 "HgN/A
7:20 PM81 °FPassing clouds.8 mph54%30.30 "HgN/A
Weather by CustomWeather, © 2015

See weather overviewHow to use our weather pages